Torna al catalogo

STARLINK-5725

AttivoComunicazioniVLEO
NORAD 55605·PAYLOAD·🇺🇸 United States

Lanciato Feb 12, 2023 da Cape Canaveral Space Force Station

Loading…

Prossimi Passaggi (prossime 24 ore)

TLE

AggiornatoSource: CelesTrak SupGP

Epoca: Sep 15, 2026, 02:43 UTC

1 55605C 23020AN  26258.11368056  .00002719  00000+0  98478-4 0  2587
2 55605  43.0037   4.3993 0001456 267.8036 321.9396 15.27574948    12

Traccia STARLINK-5725 in tempo reale con AllMySat

Download on the App Store